Regional Weather Roundup
Issued by NWS Kansas City/Pleasant Hill, MO

Home | Current Version | Previous Version | Text Only | Print | Product List | Glossary On
Versions: 1 2 3 4 5 6 7 8 9 10 11 12 13 14 15 16 17 18 19 20 21 22 23 24 25 26 27 28
000
ASUS43 KEAX 200510
RWREAX

WEATHER ROUNDUP FOR EASTERN KANSAS AND NORTHWEST MISSOURI
NATIONAL WEATHER SERVICE KANSAS CITY/PLEASANT HILL MO
1200 AM CDT FRI APR 20 2018

KSZ040-057-103>105-MOZ028-029-037-043-200600-
...KANSAS CITY METROPOLITAN AREA...

CITY           SKY/WX    TMP DP  RH WIND       PRES   REMARKS
K.C. INTL      CLEAR     44  28  53 SE7       30.41R
K.C. DOWNTOWN  CLEAR     50  29  44 SE5       30.41R
LEES SUMMIT    CLOUDY    47  29  49 SE3       30.42R
OLATHE - IXD   PTCLDY    45  30  55 E5        30.41R
OLATHE - OJC   PTCLDY    45  30  55 SE5       30.40S
LAWRENCE       PTCLDY    37  31  78 E6        30.40S WCI  32

$$

MOZ001>008-011>017-020>025-030>033-038>040-044>046-053-054-200600-
...NORTHERN AND CENTRAL MISSOURI...

CITY           SKY/WX    TMP DP  RH WIND       PRES   REMARKS
ST. JOSEPH     CLEAR     41  30  65 CALM      30.42R
MOSBY          CLEAR     36  30  80 CALM      30.43R
WARRENSBURG    CLOUDY    43  30  61 CALM      30.42R
WHITEMAN AFB   PTCLDY    45  29  53 CALM      30.38R
CLINTON        CLOUDY    39  30  70 E3        30.41S
SEDALIA        CLEAR     44  31  60 E6        30.42R
WARSAW         NOT AVBL
CHILLICOTHE      N/A     37  27  67 CALM      30.44R
KIRKSVILLE     CLEAR     34  26  72 NE3       30.43R

$$

MOZ041-047>049-056>058-063>065-088>090-097-200600-
...EASTERN AND SOUTHERN MISSOURI...

CITY           SKY/WX    TMP DP  RH WIND       PRES   REMARKS
ST. LOUIS INTL CLEAR     44  30  57 NE3       30.43R
SPIRIT OF STL  CLEAR     36  33  89 CALM      30.42R
COLUMBIA       CLEAR     44  29  55 E5        30.41R
JEFFERSON CITY CLEAR     39  30  70 CALM      30.42R
ROLLA          CLEAR     40  28  62 E5        30.41R
OSAGE BEACH    CLEAR     44  30  57 E3        30.42S
SPRINGFIELD    PTCLDY    45  30  55 E5        30.37S
BRANSON        CLEAR     45  28  53 CALM      30.38R
JOPLIN         CLEAR     44  33  65 E3        30.38S
WEST PLAINS    CLEAR     43  29  57 NE3       30.40R

$$

IAZ060-094-KSZ022-034>040-054-083-096-NEZ052-066-093-200600-
...KANSAS...SOUTHEAST NEBRASKA AND IOWA...

CITY           SKY/WX    TMP DP  RH WIND       PRES   REMARKS
TOPEKA         CLOUDY    42  33  70 E5        30.39S
MANHATTAN      CLEAR     41  27  57 CALM      30.38R
EMPORIA        CLOUDY    42  30  62 SE7       30.37S
CHANUTE        CLOUDY    44  32  62 E5        30.39S
WICHITA        CLOUDY    47  29  49 E9        30.33F
OMAHA          CLEAR     45  26  47 E7        30.41R
LINCOLN        CLOUDY    38  26  62 NW3       30.40R
FALLS CITY     CLEAR     43  26  51 SE3       30.39S
LAMONI         PTCLDY    42  26  53 NE5       30.42R
DES MOINES     PTCLDY    41  26  55 NE8       30.45R

$$





USA.gov is the U.S. government's official web portal to all federal, state and local government web resources and services.